Time,TemperatureF,DewpointF,PressureIn,WindDirection,WindDirectionDegrees,WindSpeedMPH,WindSpeedGustMPH,Humidity,HourlyPrecipIn,Conditions,Clouds,dailyrainin,SolarRadiationWatts/m^2,SoftwareType,DateUTC
2014-01-14 00:00:00,49.1,34.1,29.79,SW,232,0.0,0.0,56,0.00,,OVC090,0.00,0.00,VWS V14.01,2014-01-14 05:00:00,
2014-01-14 00:01:00,50.4,36.2,29.77,SSW,195,3.0,7.0,58,0.00,,OVC110,0.00,0.00,VWS V14.01,2014-01-14 05:01:00,
2014-01-14 00:16:00,48.8,34.7,29.78,West,281,0.0,4.0,58,0.00,,OVC110,0.00,0.00,VWS V14.01,2014-01-14 05:16:00,
2014-01-14 00:22:00,49.1,34.1,29.78,WSW,239,0.0,0.0,56,0.00,,OVC110,0.00,0.00,VWS V14.01,2014-01-14 05:22:00,
2014-01-14 00:29:00,49.2,34.6,29.78,West,271,0.0,4.0,57,0.00,,OVC110,0.00,0.00,VWS V14.01,2014-01-14 05:29:00,
2014-01-14 00:34:00,49.7,35.1,29.77,WNW,285,7.0,11.0,57,0.00,,OVC110,0.00,0.00,VWS V14.01,2014-01-14 05:34:00,
2014-01-14 00:36:00,49.5,35.8,29.76,WSW,253,1.0,5.0,59,0.00,,OVC110,0.00,0.00,VWS V14.01,2014-01-14 05:36:00,
2014-01-14 00:38:00,49.5,35.8,29.76,WSW,244,0.0,5.0,59,0.00,,OVC110,0.00,0.00,VWS V14.01,2014-01-14 05:38:00,
2014-01-14 00:40:00,50.0,35.4,29.77,WSW,246,11.0,11.0,57,0.00,,OVC110,0.00,0.00,VWS V14.01,2014-01-14 05:40:00,
2014-01-14 00:41:00,49.4,36.1,29.76,SSW,200,1.0,2.0,60,0.00,,OVC110,0.00,0.00,VWS V14.01,2014-01-14 05:41:00,
2014-01-14 00:43:00,49.4,36.1,29.76,WSW,243,3.0,5.0,60,0.00,,OVC110,0.00,0.00,VWS V14.01,2014-01-14 05:43:00,
2014-01-14 00:44:00,49.2,35.9,29.75,West,268,7.0,9.0,60,0.00,,OVC110,0.00,0.00,VWS V14.01,2014-01-14 05:44:00,
2014-01-14 00:45:00,50.3,36.1,29.77,West,270,3.0,8.0,58,0.00,,OVC110,0.00,0.00,VWS V14.01,2014-01-14 05:45:00,
2014-01-14 00:46:00,49.2,35.9,29.75,West,271,1.0,10.0,60,0.00,,OVC110,0.00,0.00,VWS V14.01,2014-01-14 05:46:00,
2014-01-14 00:47:00,49.2,35.9,29.75,WSW,253,6.0,10.0,60,0.00,,OVC110,0.00,0.00,VWS V14.01,2014-01-14 05:47:00,
2014-01-14 00:48:00,49.2,35.9,29.75,SW,232,3.0,10.0,60,0.00,,OVC110,0.00,0.00,VWS V14.01,2014-01-14 05:48:00,
2014-01-14 00:49:00,49.2,35.9,29.75,SW,227,10.0,13.0,60,0.00,,OVC110,0.00,0.00,VWS V14.01,2014-01-14 05:49:00,
2014-01-14 00:50:00,50.3,36.1,29.77,WSW,237,6.0,8.0,58,0.00,,OVC110,0.00,0.00,VWS V14.01,2014-01-14 05:50:00,
2014-01-14 00:52:00,49.2,35.9,29.75,SSW,213,7.0,12.0,60,0.00,,OVC110,0.00,0.00,VWS V14.01,2014-01-14 05:52:00,
2014-01-14 00:53:00,49.2,35.9,29.75,WSW,239,2.0,12.0,60,0.00,,OVC110,0.00,0.00,VWS V14.01,2014-01-14 05:53:00,
2014-01-14 00:54:00,49.2,36.3,29.75,SSW,196,3.0,12.0,61,0.00,,OVC110,0.00,0.00,VWS V14.01,2014-01-14 05:54:00,
2014-01-14 00:55:00,50.3,36.1,29.77,WNW,302,2.0,6.0,58,0.00,,OVC110,0.00,0.00,VWS V14.01,2014-01-14 05:55:00,
2014-01-14 00:58:00,49.2,36.3,29.75,WSW,247,5.0,13.0,61,0.00,,OVC110,0.00,0.00,VWS V14.01,2014-01-14 05:58:00,
2014-01-14 01:00:00,50.3,36.1,29.77,WSW,239,3.0,11.0,58,0.00,,OVC110,0.00,0.00,VWS V14.01,2014-01-14 06:00:00,
2014-01-14 01:05:00,50.4,36.2,29.77,SSW,196,1.0,7.0,58,0.00,,OVC110,0.00,0.00,VWS V14.01,2014-01-14 06:05:00,
2014-01-14 01:10:00,50.3,36.1,29.77,WSW,251,2.0,7.0,58,0.00,,OVC110,0.00,0.00,VWS V14.01,2014-01-14 06:10:00,
2014-01-14 01:16:00,50.3,36.1,29.76,South,181,7.0,7.0,58,0.00,,OVC110,0.00,0.00,VWS V14.01,2014-01-14 06:16:00,
2014-01-14 01:21:00,50.1,35.9,29.76,WSW,243,0.0,7.0,58,0.00,,OVC110,0.00,0.00,VWS V14.01,2014-01-14 06:21:00,
2014-01-14 01:26:00,50.0,35.8,29.76,SW,227,6.0,6.0,58,0.00,,OVC110,0.00,0.00,VWS V14.01,2014-01-14 06:26:00,
2014-01-14 01:31:00,49.8,36.1,29.76,SSW,202,2.0,7.0,59,0.00,,OVC110,0.00,0.00,VWS V14.01,2014-01-14 06:31:00,
2014-01-14 01:36:00,49.7,36.0,29.76,WSW,248,1.0,5.0,59,0.00,,OVC110,0.00,0.00,VWS V14.01,2014-01-14 06:36:00,
2014-01-14 01:41:00,49.5,35.8,29.76,SW,236,2.0,5.0,59,0.00,,OVC110,0.00,0.00,VWS V14.01,2014-01-14 06:41:00,
2014-01-14 01:46:00,49.2,35.9,29.75,WSW,254,5.0,9.0,60,0.00,,OVC110,0.00,0.00,VWS V14.01,2014-01-14 06:46:00,
2014-01-14 01:51:00,49.2,35.9,29.75,SSW,203,6.0,13.0,60,0.00,,OVC110,0.00,0.00,VWS V14.01,2014-01-14 06:51:00,
2014-01-14 01:56:00,49.2,36.3,29.75,SW,229,3.0,12.0,61,0.00,,OVC110,0.00,0.00,VWS V14.01,2014-01-14 06:56:00,
2014-01-14 02:01:00,49.2,36.3,29.75,WSW,247,5.0,5.0,61,0.00,,OVC110,0.00,0.00,VWS V14.01,2014-01-14 07:01:00,
2014-01-14 02:06:00,49.2,36.3,29.75,WSW,251,4.0,11.0,61,0.00,,OVC044,0.00,0.00,VWS V14.01,2014-01-14 07:06:00,
2014-01-14 02:12:00,49.2,36.3,29.75,WSW,237,2.0,9.0,61,0.00,,OVC044,0.00,0.00,VWS V14.01,2014-01-14 07:12:00,
2014-01-14 02:17:00,49.1,36.7,29.75,SSW,203,4.0,14.0,62,0.00,,OVC044,0.00,0.00,VWS V14.01,2014-01-14 07:17:00,
2014-01-14 02:22:00,49.1,36.7,29.75,South,188,7.0,7.0,62,0.00,,OVC044,0.00,0.00,VWS V14.01,2014-01-14 07:22:00,
2014-01-14 02:27:00,49.1,36.7,29.75,SW,224,5.0,11.0,62,0.00,,OVC044,0.00,0.00,VWS V14.01,2014-01-14 07:27:00,
2014-01-14 02:32:00,48.9,36.5,29.75,SSW,198,7.0,8.0,62,0.00,,OVC044,0.00,0.00,VWS V14.01,2014-01-14 07:32:00,
2014-01-14 02:37:00,48.9,36.9,29.75,WSW,240,1.0,9.0,63,0.00,,OVC044,0.00,0.00,VWS V14.01,2014-01-14 07:37:00,
2014-01-14 02:42:00,48.8,36.8,29.75,South,178,3.0,8.0,63,0.00,,OVC044,0.00,0.00,VWS V14.01,2014-01-14 07:42:00,
2014-01-14 02:47:00,48.8,36.8,29.75,South,186,5.0,11.0,63,0.00,,OVC044,0.00,0.00,VWS V14.01,2014-01-14 07:47:00,
2014-01-14 02:52:00,48.8,37.2,29.75,WSW,253,2.0,2.0,64,0.00,,OVC044,0.00,0.00,VWS V14.01,2014-01-14 07:52:00,
2014-01-14 02:57:00,48.6,37.0,29.75,West,264,2.0,7.0,64,0.00,,OVC044,0.00,0.00,VWS V14.01,2014-01-14 07:57:00,
2014-01-14 03:02:00,48.5,37.3,29.75,WSW,239,7.0,7.0,65,0.00,,OVC042,0.00,0.00,VWS V14.01,2014-01-14 08:02:00,
2014-01-14 03:08:00,48.6,37.4,29.75,WSW,244,2.0,11.0,65,0.00,,OVC042,0.00,0.00,VWS V14.01,2014-01-14 08:08:00,
2014-01-14 03:13:00,48.5,37.3,29.75,SW,216,7.0,10.0,65,0.00,,OVC042,0.00,0.00,VWS V14.01,2014-01-14 08:13:00,
2014-01-14 03:18:00,48.5,37.7,29.74,West,263,7.0,12.0,66,0.00,,OVC042,0.00,0.00,VWS V14.01,2014-01-14 08:18:00,
2014-01-14 03:23:00,48.4,37.6,29.74,SSW,206,7.0,7.0,66,0.00,,OVC042,0.00,0.00,VWS V14.01,2014-01-14 08:23:00,
2014-01-14 03:28:00,48.2,37.8,29.74,WSW,253,3.0,10.0,67,0.00,,OVC042,0.00,0.00,VWS V14.01,2014-01-14 08:28:00,
2014-01-14 03:33:00,48.2,37.8,29.74,WSW,239,7.0,8.0,67,0.00,,OVC042,0.00,0.00,VWS V14.01,2014-01-14 08:33:00,
2014-01-14 03:38:00,48.2,37.8,29.74,WSW,258,3.0,8.0,67,0.00,,OVC042,0.00,0.00,VWS V14.01,2014-01-14 08:38:00,
2014-01-14 03:43:00,48.1,37.7,29.74,WSW,258,1.0,3.0,67,0.00,,OVC042,0.00,0.00,VWS V14.01,2014-01-14 08:43:00,
2014-01-14 03:48:00,48.1,37.7,29.74,SW,216,6.0,6.0,67,0.00,,OVC042,0.00,0.00,VWS V14.01,2014-01-14 08:48:00,
2014-01-14 03:53:00,47.8,37.8,29.74,SW,219,0.0,5.0,68,0.00,,OVC042,0.00,0.00,VWS V14.01,2014-01-14 08:53:00,
2014-01-14 03:58:00,47.6,37.6,29.74,South,186,1.0,6.0,68,0.00,,OVC042,0.00,0.00,VWS V14.01,2014-01-14 08:58:00,
2014-01-14 04:03:00,47.5,37.5,29.73,WSW,253,1.0,6.0,68,0.00,,OVC040,0.00,0.00,VWS V14.01,2014-01-14 09:03:00,
2014-01-14 04:08:00,47.2,37.6,29.73,WSW,247,0.0,9.0,69,0.00,,OVC040,0.00,0.00,VWS V14.01,2014-01-14 09:08:00,
2014-01-14 04:14:00,47.2,37.6,29.73,WSW,241,2.0,8.0,69,0.00,,OVC040,0.00,0.00,VWS V14.01,2014-01-14 09:14:00,
2014-01-14 04:19:00,47.0,37.4,29.74,WSW,258,4.0,10.0,69,0.00,,OVC040,0.00,0.00,VWS V14.01,2014-01-14 09:19:00,
2014-01-14 04:24:00,47.0,37.4,29.74,SW,217,7.0,7.0,69,0.00,,OVC040,0.00,0.00,VWS V14.01,2014-01-14 09:24:00,
2014-01-14 04:29:00,47.0,37.4,29.74,SSW,210,7.0,9.0,69,0.00,,OVC040,0.00,0.00,VWS V14.01,2014-01-14 09:29:00,
2014-01-14 04:34:00,47.0,37.4,29.73,SSW,205,2.0,7.0,69,0.00,,OVC040,0.00,0.00,VWS V14.01,2014-01-14 09:34:00,
2014-01-14 04:39:00,47.0,37.7,29.73,SW,227,2.0,7.0,70,0.00,,OVC040,0.00,0.00,VWS V14.01,2014-01-14 09:39:00,
2014-01-14 04:44:00,46.9,37.6,29.73,WSW,254,2.0,10.0,70,0.00,,OVC040,0.00,0.00,VWS V14.01,2014-01-14 09:44:00,
2014-01-14 04:49:00,46.7,37.8,29.73,SW,219,3.0,10.0,71,0.00,,OVC040,0.00,0.00,VWS V14.01,2014-01-14 09:49:00,
2014-01-14 04:54:00,46.7,37.8,29.73,West,267,0.0,4.0,71,0.00,,OVC040,0.00,0.00,VWS V14.01,2014-01-14 09:54:00,
2014-01-14 04:59:00,46.7,37.8,29.73,WSW,250,1.0,7.0,71,0.00,,OVC040,0.00,0.00,VWS V14.01,2014-01-14 09:59:00,
2014-01-14 05:04:00,46.7,37.8,29.73,WSW,244,0.0,5.0,71,0.00,,OVC046,0.00,0.00,VWS V14.01,2014-01-14 10:04:00,
2014-01-14 05:09:00,46.6,37.7,29.73,West,260,0.0,5.0,71,0.00,,OVC046,0.00,0.00,VWS V14.01,2014-01-14 10:09:00,
2014-01-14 05:15:00,46.6,38.1,29.73,SW,234,5.0,7.0,72,0.00,,OVC046,0.00,0.00,VWS V14.01,2014-01-14 10:15:00,
2014-01-14 05:20:00,46.7,38.2,29.73,WSW,240,0.0,7.0,72,0.00,,OVC046,0.00,0.00,VWS V14.01,2014-01-14 10:20:00,
2014-01-14 05:25:00,46.7,38.2,29.73,SSW,209,7.0,10.0,72,0.00,,OVC046,0.00,0.00,VWS V14.01,2014-01-14 10:25:00,
2014-01-14 05:30:00,46.6,38.1,29.73,SW,223,0.0,11.0,72,0.00,,OVC046,0.00,0.00,VWS V14.01,2014-01-14 10:30:00,
2014-01-14 05:35:00,46.6,38.1,29.73,WSW,248,1.0,5.0,72,0.00,,OVC046,0.00,0.00,VWS V14.01,2014-01-14 10:35:00,
2014-01-14 05:40:00,46.6,38.1,29.73,WSW,247,6.0,8.0,72,0.00,,OVC046,0.00,0.00,VWS V14.01,2014-01-14 10:40:00,
2014-01-14 05:45:00,46.4,37.9,29.73,WSW,253,1.0,7.0,72,0.00,,OVC046,0.00,0.00,VWS V14.01,2014-01-14 10:45:00,
2014-01-14 05:50:00,46.4,38.2,29.73,South,178,0.0,9.0,73,0.00,,OVC046,0.00,0.00,VWS V14.01,2014-01-14 10:50:00,
2014-01-14 05:55:00,46.3,38.1,29.73,South,188,4.0,7.0,73,0.00,,OVC046,0.00,0.00,VWS V14.01,2014-01-14 10:55:00,
2014-01-14 06:00:00,46.3,38.1,29.73,South,191,2.0,7.0,73,0.00,,OVC046,0.00,0.00,VWS V14.01,2014-01-14 11:00:00,
2014-01-14 06:05:00,46.1,37.9,29.73,WSW,246,2.0,7.0,73,0.00,,OVC036,0.00,0.00,VWS V14.01,2014-01-14 11:05:00,
2014-01-14 06:10:00,46.1,38.3,29.73,WSW,258,4.0,7.0,74,0.00,,OVC036,0.00,0.00,VWS V14.01,2014-01-14 11:10:00,
2014-01-14 06:16:00,46.1,38.3,29.73,South,179,1.0,7.0,74,0.00,,OVC036,0.00,0.00,VWS V14.01,2014-01-14 11:16:00,
2014-01-14 06:21:00,46.0,38.2,29.73,SSW,196,3.0,8.0,74,0.00,,OVC036,0.00,0.00,VWS V14.01,2014-01-14 11:21:00,
2014-01-14 06:26:00,46.0,38.2,29.73,WSW,250,1.0,10.0,74,0.00,,OVC036,0.00,0.00,VWS V14.01,2014-01-14 11:26:00,
2014-01-14 06:31:00,46.0,38.2,29.72,SSW,198,0.0,10.0,74,0.00,,OVC036,0.00,0.00,VWS V14.01,2014-01-14 11:31:00,
2014-01-14 06:36:00,46.0,38.5,29.72,WSW,257,2.0,8.0,75,0.00,,OVC036,0.00,0.00,VWS V14.01,2014-01-14 11:36:00,
2014-01-14 06:41:00,45.8,38.3,29.72,SW,234,5.0,9.0,75,0.00,,OVC036,0.00,0.00,VWS V14.01,2014-01-14 11:41:00,
2014-01-14 06:46:00,45.8,38.3,29.73,WSW,243,1.0,7.0,75,0.00,,OVC036,0.00,0.00,VWS V14.01,2014-01-14 11:46:00,
2014-01-14 06:51:00,45.8,38.3,29.73,SW,232,3.0,7.0,75,0.00,,OVC036,0.00,0.00,VWS V14.01,2014-01-14 11:51:00,
2014-01-14 06:56:00,46.0,38.5,29.73,WSW,246,3.0,6.0,75,0.00,,OVC036,0.00,0.00,VWS V14.01,2014-01-14 11:56:00,
2014-01-14 07:01:00,46.0,38.5,29.74,SSW,205,1.0,6.0,75,0.00,,OVC036,0.00,0.00,VWS V14.01,2014-01-14 12:01:00,
2014-01-14 07:06:00,46.0,38.5,29.74,WSW,240,0.0,5.0,75,0.00,,OVC038,0.00,0.00,VWS V14.01,2014-01-14 12:06:00,
2014-01-14 07:11:00,45.8,38.3,29.74,SW,219,0.0,0.0,75,0.00,,OVC038,0.00,0.00,VWS V14.01,2014-01-14 12:11:00,
2014-01-14 07:17:00,45.8,38.3,29.74,SW,232,5.0,6.0,75,0.00,,OVC038,0.00,0.00,VWS V14.01,2014-01-14 12:17:00,
2014-01-14 07:22:00,45.8,38.3,29.74,South,186,0.0,5.0,75,0.00,,OVC038,0.00,0.00,VWS V14.01,2014-01-14 12:22:00,
2014-01-14 07:27:00,45.8,38.3,29.74,SW,233,0.0,5.0,75,0.00,,OVC038,0.00,0.00,VWS V14.01,2014-01-14 12:27:00,
2014-01-14 07:32:00,45.8,38.3,29.75,SSW,212,1.0,2.0,75,0.00,,OVC038,0.00,0.00,VWS V14.01,2014-01-14 12:32:00,
2014-01-14 07:37:00,45.8,38.7,29.75,SSW,209,0.0,6.0,76,0.00,,OVC038,0.00,0.00,VWS V14.01,2014-01-14 12:37:00,
2014-01-14 07:42:00,45.7,38.6,29.75,SSW,208,0.0,0.0,76,0.00,,OVC038,0.00,0.00,VWS V14.01,2014-01-14 12:42:00,
2014-01-14 07:47:00,45.7,38.6,29.75,SSW,209,2.0,5.0,76,0.00,,OVC038,0.00,5.00,VWS V14.01,2014-01-14 12:47:00,
2014-01-14 07:52:00,45.5,38.4,29.75,SSW,210,3.0,6.0,76,0.00,,OVC038,0.00,7.00,VWS V14.01,2014-01-14 12:52:00,
2014-01-14 07:57:00,45.5,38.4,29.75,SSW,203,3.0,6.0,76,0.00,,OVC038,0.00,11.00,VWS V14.01,2014-01-14 12:57:00,
2014-01-14 08:02:00,45.5,38.4,29.74,SSW,196,0.0,2.0,76,0.00,,OVC042,0.00,14.00,VWS V14.01,2014-01-14 13:02:00,
2014-01-14 08:08:00,45.5,38.4,29.74,SSW,196,0.0,2.0,76,0.00,,OVC042,0.00,32.00,VWS V14.01,2014-01-14 13:08:00,
2014-01-14 08:13:00,45.7,38.9,29.74,SSW,196,1.0,3.0,77,0.00,,OVC042,0.00,42.00,VWS V14.01,2014-01-14 13:13:00,
2014-01-14 08:18:00,45.7,38.9,29.74,SW,224,0.0,3.0,77,0.00,,OVC042,0.00,28.00,VWS V14.01,2014-01-14 13:18:00,
2014-01-14 08:23:00,45.7,38.6,29.74,SW,224,0.0,0.0,76,0.00,,OVC042,0.00,26.00,VWS V14.01,2014-01-14 13:23:00,
2014-01-14 08:28:00,45.7,38.9,29.74,SW,230,0.0,0.0,77,0.00,,OVC042,0.00,16.00,VWS V14.01,2014-01-14 13:28:00,
2014-01-14 08:33:00,45.5,38.7,29.75,SW,230,0.0,0.0,77,0.00,,OVC042,0.00,14.00,VWS V14.01,2014-01-14 13:33:00,
2014-01-14 08:38:00,45.4,38.6,29.75,SW,230,0.0,0.0,77,0.00,,OVC042,0.00,12.00,VWS V14.01,2014-01-14 13:38:00,
2014-01-14 08:43:00,45.4,38.6,29.75,SW,230,0.0,0.0,77,0.00,,OVC042,0.00,12.00,VWS V14.01,2014-01-14 13:43:00,
2014-01-14 08:48:00,45.2,38.4,29.76,SW,230,0.0,0.0,77,0.00,,OVC042,0.00,16.00,VWS V14.01,2014-01-14 13:48:00,
2014-01-14 08:53:00,45.1,38.3,29.76,SW,229,0.0,0.0,77,0.00,,OVC042,0.00,21.00,VWS V14.01,2014-01-14 13:53:00,
2014-01-14 08:58:00,45.0,38.6,29.76,ESE,102,0.0,0.0,78,0.00,,OVC042,0.00,23.00,VWS V14.01,2014-01-14 13:58:00,
2014-01-14 09:03:00,44.8,38.4,29.76,ESE,102,0.0,0.0,78,0.00,,OVC037,0.00,12.00,VWS V14.01,2014-01-14 14:03:00,
2014-01-14 09:09:00,44.8,38.4,29.76,ESE,102,0.0,0.0,78,0.00,,OVC037,0.00,14.00,VWS V14.01,2014-01-14 14:09:00,
2014-01-14 09:14:00,44.7,38.6,29.76,SSE,160,0.0,0.0,79,0.00,,OVC037,0.00,28.00,VWS V14.01,2014-01-14 14:14:00,
2014-01-14 09:19:00,44.7,38.6,29.76,SSE,161,0.0,0.0,79,0.00,,OVC037,0.00,30.00,VWS V14.01,2014-01-14 14:19:00,
2014-01-14 09:24:00,44.7,38.6,29.76,SSE,161,0.0,0.0,79,0.00,,OVC037,0.00,26.00,VWS V14.01,2014-01-14 14:24:00,
2014-01-14 09:29:00,44.7,38.6,29.76,SSE,161,0.0,0.0,79,0.00,,OVC037,0.00,44.00,VWS V14.01,2014-01-14 14:29:00,
2014-01-14 09:34:00,44.8,38.7,29.76,SSE,161,0.0,0.0,79,0.00,,OVC037,0.00,44.00,VWS V14.01,2014-01-14 14:34:00,
2014-01-14 09:39:00,44.8,38.7,29.76,SSE,161,0.0,0.0,79,0.00,,OVC037,0.00,35.00,VWS V14.01,2014-01-14 14:39:00,
2014-01-14 09:44:00,45.0,38.9,29.76,SSE,161,0.0,0.0,79,0.00,,OVC037,0.00,33.00,VWS V14.01,2014-01-14 14:44:00,
2014-01-14 09:49:00,45.0,38.9,29.77,SSE,161,0.0,0.0,79,0.00,,OVC037,0.00,35.00,VWS V14.01,2014-01-14 14:49:00,
2014-01-14 09:54:00,45.0,38.9,29.77,SSE,161,0.0,0.0,79,0.00,,OVC037,0.00,28.00,VWS V14.01,2014-01-14 14:54:00,
2014-01-14 09:59:00,45.0,38.9,29.77,SSE,161,0.0,0.0,79,0.00,,OVC037,0.00,30.00,VWS V14.01,2014-01-14 14:59:00,
2014-01-14 10:04:00,45.0,38.9,29.77,SSE,161,0.0,0.0,79,0.00,,OVC055,0.00,26.00,VWS V14.01,2014-01-14 15:04:00,
2014-01-14 10:09:00,44.8,39.0,29.77,SSE,161,0.0,0.0,80,0.00,,OVC055,0.00,33.00,VWS V14.01,2014-01-14 15:09:00,
2014-01-14 10:15:00,44.8,39.3,29.77,SSE,161,0.0,0.0,81,0.00,,OVC055,0.00,28.00,VWS V14.01,2014-01-14 15:15:00,
2014-01-14 10:20:00,44.7,39.2,29.78,WSW,256,1.0,5.0,81,0.00,,OVC055,0.00,28.00,VWS V14.01,2014-01-14 15:20:00,
2014-01-14 10:25:00,44.7,39.2,29.78,WSW,256,0.0,0.0,81,0.00,,OVC055,0.00,30.00,VWS V14.01,2014-01-14 15:25:00,
2014-01-14 10:30:00,44.8,39.3,29.78,WSW,256,0.0,0.0,81,0.00,,OVC055,0.00,33.00,VWS V14.01,2014-01-14 15:30:00,
2014-01-14 10:35:00,44.8,39.7,29.79,WSW,256,0.0,0.0,82,0.00,,OVC055,0.00,32.00,VWS V14.01,2014-01-14 15:35:00,
2014-01-14 10:40:00,44.8,39.7,29.79,WSW,256,0.0,0.0,82,0.00,,OVC055,0.00,35.00,VWS V14.01,2014-01-14 15:40:00,
2014-01-14 10:45:00,44.8,40.0,29.79,West,263,2.0,3.0,83,0.00,,OVC055,0.00,42.00,VWS V14.01,2014-01-14 15:45:00,
2014-01-14 10:50:00,44.7,39.9,29.78,West,261,0.0,3.0,83,0.00,,OVC055,0.00,55.00,VWS V14.01,2014-01-14 15:50:00,
2014-01-14 10:55:00,44.7,40.2,29.78,SW,216,3.0,5.0,84,0.00,,OVC055,0.00,44.00,VWS V14.01,2014-01-14 15:55:00,
2014-01-14 11:00:00,44.7,40.2,29.78,WSW,257,0.0,5.0,84,0.00,,OVC055,0.00,53.00,VWS V14.01,2014-01-14 16:00:00,
2014-01-14 11:05:00,44.8,40.0,29.79,WSW,246,3.0,4.0,83,0.00,,OVC065,0.00,49.00,VWS V14.01,2014-01-14 16:05:00,
2014-01-14 11:11:00,45.0,39.8,29.79,NW,305,1.0,4.0,82,0.00,,OVC065,0.00,49.00,VWS V14.01,2014-01-14 16:11:00,
2014-01-14 11:16:00,45.1,39.9,29.79,NW,305,0.0,3.0,82,0.00,,OVC065,0.00,51.00,VWS V14.01,2014-01-14 16:16:00,
2014-01-14 11:21:00,45.2,39.7,29.79,NW,305,0.0,3.0,81,0.00,,OVC065,0.00,51.00,VWS V14.01,2014-01-14 16:21:00,
2014-01-14 11:26:00,45.2,39.7,29.79,NW,306,0.0,0.0,81,0.00,,OVC065,0.00,65.00,VWS V14.01,2014-01-14 16:26:00,
2014-01-14 11:31:00,45.4,40.2,29.78,NW,306,0.0,0.0,82,0.00,,OVC065,0.00,44.00,VWS V14.01,2014-01-14 16:31:00,
2014-01-14 11:36:00,45.4,40.5,29.78,NE,38,0.0,0.0,83,0.01,,OVC065,0.01,42.00,VWS V14.01,2014-01-14 16:36:00,
2014-01-14 11:41:00,45.2,40.7,29.78,WSW,248,1.0,3.0,84,0.01,,OVC065,0.01,28.00,VWS V14.01,2014-01-14 16:41:00,
2014-01-14 11:46:00,45.0,41.1,29.78,West,263,1.0,3.0,86,0.01,,OVC065,0.01,30.00,VWS V14.01,2014-01-14 16:46:00,
2014-01-14 11:51:00,44.8,41.2,29.78,SSW,208,0.0,4.0,87,0.01,,OVC065,0.01,37.00,VWS V14.01,2014-01-14 16:51:00,
2014-01-14 11:56:00,44.7,41.1,29.78,SSW,202,3.0,4.0,87,0.02,,OVC065,0.02,39.00,VWS V14.01,2014-01-14 16:56:00,
2014-01-14 12:01:00,44.5,41.2,29.76,SW,216,0.0,0.0,88,0.02,,OVC065,0.02,60.00,VWS V14.01,2014-01-14 17:01:00,
2014-01-14 12:07:00,44.7,41.4,29.76,SSW,198,1.0,4.0,88,0.02,,-RA,0.02,70.00,VWS V14.01,2014-01-14 17:07:00,
2014-01-14 12:12:00,44.7,41.7,29.76,South,185,0.0,3.0,89,0.02,,-RA,0.02,114.00,VWS V14.01,2014-01-14 17:12:00,
2014-01-14 12:17:00,44.8,42.0,29.74,SSW,193,0.0,5.0,90,0.02,,-RA,0.02,130.00,VWS V14.01,2014-01-14 17:17:00,
2014-01-14 12:22:00,45.0,42.5,29.74,SSW,202,4.0,4.0,91,0.02,,-RA,0.02,107.00,VWS V14.01,2014-01-14 17:22:00,
2014-01-14 12:27:00,45.1,42.6,29.74,NW,326,0.0,6.0,91,0.02,,-RA,0.02,84.00,VWS V14.01,2014-01-14 17:27:00,
2014-01-14 12:32:00,45.1,42.9,29.75,NW,326,0.0,0.0,92,0.02,,-RA,0.02,53.00,VWS V14.01,2014-01-14 17:32:00,
2014-01-14 12:37:00,45.1,42.9,29.75,NW,326,0.0,0.0,92,0.02,,-RA,0.02,32.00,VWS V14.01,2014-01-14 17:37:00,
2014-01-14 12:42:00,45.1,42.9,29.75,NW,326,0.0,0.0,92,0.01,,-RA,0.02,33.00,VWS V14.01,2014-01-14 17:42:00,
2014-01-14 12:47:00,44.8,42.6,29.74,SW,216,3.0,3.0,92,0.01,,-RA,0.02,39.00,VWS V14.01,2014-01-14 17:47:00,
2014-01-14 12:52:00,44.7,42.5,29.74,SSW,208,0.0,3.0,92,0.01,,-RA,0.02,40.00,VWS V14.01,2014-01-14 17:52:00,
2014-01-14 12:57:00,44.5,42.3,29.74,SSW,209,2.0,5.0,92,0.01,,-RA,0.02,53.00,VWS V14.01,2014-01-14 17:57:00,
2014-01-14 13:03:00,44.5,42.3,29.74,SW,223,1.0,2.0,92,0.00,,OVC100,0.02,77.00,VWS V14.01,2014-01-14 18:03:00,
2014-01-14 13:08:00,44.5,42.3,29.74,SSW,199,0.0,5.0,92,0.00,,OVC100,0.02,179.00,VWS V14.01,2014-01-14 18:08:00,
2014-01-14 13:13:00,45.0,43.1,29.74,SSW,199,0.0,0.0,93,0.00,,OVC100,0.02,174.00,VWS V14.01,2014-01-14 18:13:00,
2014-01-14 13:18:00,45.4,43.2,29.74,NE,44,0.0,1.0,92,0.00,,OVC100,0.02,192.00,VWS V14.01,2014-01-14 18:18:00,
2014-01-14 13:23:00,45.7,43.5,29.74,NE,48,0.0,0.0,92,0.00,,OVC100,0.02,225.00,VWS V14.01,2014-01-14 18:23:00,
2014-01-14 13:28:00,45.8,43.0,29.74,NE,47,0.0,1.0,90,0.00,,OVC100,0.02,222.00,VWS V14.01,2014-01-14 18:28:00,
2014-01-14 13:33:00,46.0,43.2,29.71,NE,52,0.0,0.0,90,0.00,,OVC100,0.02,259.00,VWS V14.01,2014-01-14 18:33:00,
2014-01-14 13:38:00,46.4,43.9,29.71,NE,52,0.0,0.0,91,0.00,,OVC100,0.02,267.00,VWS V14.01,2014-01-14 18:38:00,
2014-01-14 13:43:00,46.9,44.1,29.71,NE,55,0.0,1.0,90,0.00,,OVC100,0.02,510.00,VWS V14.01,2014-01-14 18:43:00,
2014-01-14 13:48:00,47.3,43.9,29.71,ENE,59,0.0,2.0,88,0.00,,OVC100,0.02,230.00,VWS V14.01,2014-01-14 18:48:00,
2014-01-14 13:53:00,47.6,44.2,29.71,East,99,0.0,0.0,88,0.00,,OVC100,0.02,236.00,VWS V14.01,2014-01-14 18:53:00,
2014-01-14 13:59:00,47.8,43.8,29.71,ESE,104,0.0,0.0,86,0.00,,OVC100,0.02,146.00,VWS V14.01,2014-01-14 18:59:00,
2014-01-14 14:04:00,47.8,43.5,29.71,ESE,121,0.0,0.0,85,0.00,,SCT065,0.02,95.00,VWS V14.01,2014-01-14 19:04:00,
2014-01-14 14:09:00,47.8,43.2,29.71,ESE,123,0.0,0.0,84,0.00,,SCT065,0.02,76.00,VWS V14.01,2014-01-14 19:09:00,
2014-01-14 14:14:00,47.9,42.7,29.71,ESE,123,0.0,0.0,82,0.00,,SCT065,0.02,135.00,VWS V14.01,2014-01-14 19:14:00,
2014-01-14 14:19:00,47.8,42.3,29.71,ESE,123,0.0,0.0,81,0.00,,SCT065,0.02,120.00,VWS V14.01,2014-01-14 19:19:00,
2014-01-14 14:24:00,47.9,42.4,29.71,SW,236,0.0,0.0,81,0.00,,SCT065,0.02,123.00,VWS V14.01,2014-01-14 19:24:00,
2014-01-14 14:29:00,48.1,42.5,29.71,NW,304,2.0,2.0,81,0.00,,SCT065,0.02,132.00,VWS V14.01,2014-01-14 19:29:00,
2014-01-14 14:34:00,47.9,42.0,29.73,NW,323,0.0,3.0,80,0.00,,SCT065,0.02,130.00,VWS V14.01,2014-01-14 19:34:00,
2014-01-14 14:39:00,47.9,42.0,29.73,NW,323,1.0,3.0,80,0.00,,SCT065,0.02,139.00,VWS V14.01,2014-01-14 19:39:00,
2014-01-14 14:44:00,48.1,42.2,29.73,NW,320,5.0,5.0,80,0.00,,SCT065,0.02,160.00,VWS V14.01,2014-01-14 19:44:00,
2014-01-14 14:49:00,48.1,40.9,29.75,North,0,6.0,10.0,76,0.00,,SCT065,0.02,123.00,VWS V14.01,2014-01-14 19:49:00,
2014-01-14 14:54:00,47.9,39.3,29.75,WNW,299,5.0,12.0,72,0.00,,SCT065,0.02,100.00,VWS V14.01,2014-01-14 19:54:00,
2014-01-14 15:00:00,48.1,37.7,29.75,NNW,332,10.0,15.0,67,0.00,,SCT065,0.02,60.00,VWS V14.01,2014-01-14 20:00:00,
2014-01-14 15:05:00,48.1,37.3,29.75,North,359,5.0,8.0,66,0.00,,OVC046,0.02,67.00,VWS V14.01,2014-01-14 20:05:00,
2014-01-14 15:10:00,48.2,37.0,29.75,WNW,302,4.0,10.0,65,0.00,,OVC046,0.02,77.00,VWS V14.01,2014-01-14 20:10:00,
2014-01-14 15:15:00,48.4,37.6,29.75,NNW,337,2.0,8.0,66,0.00,,OVC046,0.02,100.00,VWS V14.01,2014-01-14 20:15:00,
2014-01-14 15:20:00,48.5,37.3,29.77,NW,305,5.0,8.0,65,0.00,,OVC046,0.02,118.00,VWS V14.01,2014-01-14 20:20:00,
2014-01-14 15:25:00,48.6,35.8,29.77,WNW,291,4.0,13.0,61,0.00,,OVC046,0.02,113.00,VWS V14.01,2014-01-14 20:25:00,
2014-01-14 15:30:00,48.6,36.2,29.77,NW,315,4.0,13.0,62,0.00,,OVC046,0.02,114.00,VWS V14.01,2014-01-14 20:30:00,
2014-01-14 15:35:00,48.6,36.6,29.78,NW,316,4.0,6.0,63,0.00,,OVC046,0.02,171.00,VWS V14.01,2014-01-14 20:35:00,
2014-01-14 15:40:00,48.8,36.4,29.78,NNW,335,0.0,6.0,62,0.00,,OVC046,0.02,113.00,VWS V14.01,2014-01-14 20:40:00,
2014-01-14 15:45:00,48.8,36.4,29.78,NNW,333,1.0,8.0,62,0.00,,OVC046,0.02,79.00,VWS V14.01,2014-01-14 20:45:00,
2014-01-14 15:50:00,48.6,36.2,29.78,North,0,0.0,8.0,62,0.00,,OVC046,0.02,40.00,VWS V14.01,2014-01-14 20:50:00,
2014-01-14 15:56:00,48.5,36.5,29.78,North,359,0.0,2.0,63,0.00,,OVC046,0.02,81.00,VWS V14.01,2014-01-14 20:56:00,
2014-01-14 16:01:00,48.6,36.6,29.79,North,359,0.0,2.0,63,0.00,,OVC046,0.02,209.00,VWS V14.01,2014-01-14 21:01:00,
2014-01-14 16:06:00,49.2,36.3,29.79,North,357,0.0,2.0,61,0.00,,BKN065,0.02,150.00,VWS V14.01,2014-01-14 21:06:00,
2014-01-14 16:11:00,49.7,36.0,29.79,NW,305,2.0,3.0,59,0.00,,BKN065,0.02,40.00,VWS V14.01,2014-01-14 21:11:00,
2014-01-14 16:16:00,49.7,35.5,29.80,NW,318,3.0,3.0,58,0.00,,BKN065,0.02,49.00,VWS V14.01,2014-01-14 21:16:00,
2014-01-14 16:21:00,49.4,34.4,29.80,NW,316,4.0,10.0,56,0.00,,BKN065,0.02,56.00,VWS V14.01,2014-01-14 21:21:00,
2014-01-14 16:26:00,49.4,33.9,29.80,WNW,301,4.0,7.0,55,0.00,,BKN065,0.02,118.00,VWS V14.01,2014-01-14 21:26:00,
2014-01-14 16:31:00,49.5,35.3,29.81,NNW,335,2.0,7.0,58,0.00,,BKN065,0.02,72.00,VWS V14.01,2014-01-14 21:31:00,
2014-01-14 16:36:00,49.2,34.2,29.81,NW,322,5.0,8.0,56,0.00,,BKN065,0.02,69.00,VWS V14.01,2014-01-14 21:36:00,
2014-01-14 16:41:00,49.1,33.2,29.81,NNW,330,6.0,11.0,54,0.00,,BKN065,0.02,56.00,VWS V14.01,2014-01-14 21:41:00,
2014-01-14 16:46:00,49.1,33.7,29.81,West,278,2.0,6.0,55,0.00,,BKN065,0.02,40.00,VWS V14.01,2014-01-14 21:46:00,
2014-01-14 16:51:00,48.9,33.5,29.81,NW,308,2.0,6.0,55,0.00,,BKN065,0.02,30.00,VWS V14.01,2014-01-14 21:51:00,
2014-01-14 16:56:00,48.8,33.8,29.81,NW,326,0.0,3.0,56,0.00,,BKN065,0.02,21.00,VWS V14.01,2014-01-14 21:56:00,
2014-01-14 17:02:00,48.4,34.3,29.82,NNW,330,2.0,2.0,58,0.00,,BKN065,0.02,16.00,VWS V14.01,2014-01-14 22:02:00,
2014-01-14 17:07:00,47.9,33.8,29.82,NNW,330,0.0,2.0,58,0.00,,CLR,0.02,11.00,VWS V14.01,2014-01-14 22:07:00,
2014-01-14 17:12:00,47.3,33.7,29.82,NW,315,0.0,1.0,59,0.00,,CLR,0.02,9.00,VWS V14.01,2014-01-14 22:12:00,
2014-01-14 17:17:00,47.0,33.0,29.82,NW,315,0.0,1.0,58,0.00,,CLR,0.02,7.00,VWS V14.01,2014-01-14 22:17:00,
2014-01-14 17:22:00,46.7,32.7,29.82,NW,315,0.0,0.0,58,0.00,,CLR,0.02,5.00,VWS V14.01,2014-01-14 22:22:00,
2014-01-14 17:27:00,46.3,32.8,29.82,NW,322,2.0,4.0,59,0.00,,CLR,0.02,0.00,VWS V14.01,2014-01-14 22:27:00,
2014-01-14 17:32:00,46.0,32.5,29.82,North,354,3.0,3.0,59,0.00,,CLR,0.02,0.00,VWS V14.01,2014-01-14 22:32:00,
2014-01-14 17:37:00,45.4,31.9,29.82,NW,319,0.0,6.0,59,0.00,,CLR,0.02,0.00,VWS V14.01,2014-01-14 22:37:00,
2014-01-14 17:42:00,45.0,31.1,29.82,NW,315,2.0,3.0,58,0.00,,CLR,0.02,0.00,VWS V14.01,2014-01-14 22:42:00,
2014-01-14 17:47:00,44.7,30.4,29.83,NNW,346,1.0,7.0,57,0.00,,CLR,0.02,0.00,VWS V14.01,2014-01-14 22:47:00,
2014-01-14 17:52:00,44.4,30.1,29.83,North,352,3.0,6.0,57,0.00,,CLR,0.02,0.00,VWS V14.01,2014-01-14 22:52:00,
2014-01-14 17:57:00,44.1,29.9,29.83,North,349,7.0,7.0,57,0.00,,CLR,0.02,0.00,VWS V14.01,2014-01-14 22:57:00,
2014-01-14 18:03:00,43.9,28.8,29.83,North,349,1.0,3.0,55,0.00,,SCT055,0.02,0.00,VWS V14.01,2014-01-14 23:03:00,
2014-01-14 18:08:00,43.8,29.1,29.83,NW,304,0.0,3.0,56,0.00,,SCT055,0.02,0.00,VWS V14.01,2014-01-14 23:08:00,
2014-01-14 18:13:00,43.5,29.7,29.83,NW,304,2.0,2.0,58,0.00,,SCT055,0.02,0.00,VWS V14.01,2014-01-14 23:13:00,
2014-01-14 18:18:00,42.9,29.6,29.84,SSW,202,2.0,6.0,59,0.00,,SCT055,0.02,0.00,VWS V14.01,2014-01-14 23:18:00,
2014-01-14 18:23:00,42.8,29.5,29.84,SSW,208,3.0,4.0,59,0.00,,SCT055,0.02,0.00,VWS V14.01,2014-01-14 23:23:00,
2014-01-14 18:28:00,42.6,29.3,29.84,SW,229,1.0,4.0,59,0.00,,SCT055,0.02,0.00,VWS V14.01,2014-01-14 23:28:00,
2014-01-14 18:33:00,42.8,28.6,29.84,SW,224,2.0,3.0,57,0.00,,SCT055,0.02,0.00,VWS V14.01,2014-01-14 23:33:00,
2014-01-14 18:38:00,43.1,28.0,29.84,West,267,2.0,4.0,55,0.00,,SCT055,0.02,0.00,VWS V14.01,2014-01-14 23:38:00,
2014-01-14 18:43:00,43.3,27.8,29.84,WNW,298,0.0,5.0,54,0.00,,SCT055,0.02,0.00,VWS V14.01,2014-01-14 23:43:00,
2014-01-14 18:48:00,42.8,28.6,29.85,WNW,298,2.0,5.0,57,0.00,,SCT055,0.02,0.00,VWS V14.01,2014-01-14 23:48:00,
2014-01-14 18:53:00,42.2,29.3,29.85,NNW,336,4.0,6.0,60,0.00,,SCT055,0.02,0.00,VWS V14.01,2014-01-14 23:53:00,
2014-01-14 18:59:00,41.5,29.5,29.85,NNW,343,5.0,7.0,62,0.00,,SCT055,0.02,0.00,VWS V14.01,2014-01-14 23:59:00,
2014-01-14 19:04:00,41.1,29.1,29.84,NNW,342,1.0,3.0,62,0.00,,CLR,0.02,0.00,VWS V14.01,2014-01-15 00:04:00,
2014-01-14 19:09:00,40.9,28.5,29.84,South,191,3.0,3.0,61,0.00,,CLR,0.02,0.00,VWS V14.01,2014-01-15 00:09:00,
2014-01-14 19:14:00,40.9,28.1,29.84,South,186,2.0,8.0,60,0.00,,CLR,0.02,0.00,VWS V14.01,2014-01-15 00:14:00,
2014-01-14 19:19:00,41.1,27.9,29.85,SW,219,0.0,8.0,59,0.00,,CLR,0.02,0.00,VWS V14.01,2014-01-15 00:19:00,
2014-01-14 19:24:00,41.2,28.0,29.85,SW,219,0.0,0.0,59,0.00,,CLR,0.02,0.00,VWS V14.01,2014-01-15 00:24:00,
2014-01-14 19:29:00,40.8,28.0,29.85,WSW,241,1.0,3.0,60,0.00,,CLR,0.02,0.00,VWS V14.01,2014-01-15 00:29:00,
2014-01-14 19:34:00,40.6,28.2,29.85,West,265,0.0,5.0,61,0.00,,CLR,0.02,0.00,VWS V14.01,2014-01-15 00:34:00,
2014-01-14 19:39:00,40.9,28.5,29.85,WSW,258,2.0,5.0,61,0.00,,CLR,0.02,0.00,VWS V14.01,2014-01-15 00:39:00,
2014-01-14 19:44:00,41.3,28.9,29.85,West,263,4.0,6.0,61,0.00,,CLR,0.02,0.00,VWS V14.01,2014-01-15 00:44:00,
2014-01-14 19:49:00,41.8,29.0,29.86,WSW,256,1.0,6.0,60,0.00,,CLR,0.02,0.00,VWS V14.01,2014-01-15 00:49:00,
2014-01-14 19:55:00,41.9,28.6,29.86,SW,229,2.0,5.0,59,0.00,,CLR,0.02,0.00,VWS V14.01,2014-01-15 00:55:00,
2014-01-14 20:00:00,42.1,28.8,29.86,SW,236,1.0,5.0,59,0.00,,CLR,0.02,0.00,VWS V14.01,2014-01-15 01:00:00,
2014-01-14 20:05:00,42.1,28.4,29.86,SW,236,0.0,2.0,58,0.00,,CLR,0.02,0.00,VWS V14.01,2014-01-15 01:05:00,
2014-01-14 20:10:00,42.1,28.4,29.86,SW,234,0.0,2.0,58,0.00,,CLR,0.02,0.00,VWS V14.01,2014-01-15 01:10:00,
2014-01-14 20:15:00,41.9,28.6,29.86,SW,215,2.0,3.0,59,0.00,,CLR,0.02,0.00,VWS V14.01,2014-01-15 01:15:00,
2014-01-14 20:20:00,41.9,28.6,29.86,WSW,237,0.0,3.0,59,0.00,,CLR,0.02,0.00,VWS V14.01,2014-01-15 01:20:00,
2014-01-14 20:25:00,41.2,29.2,29.86,SW,234,2.0,2.0,62,0.00,,CLR,0.02,0.00,VWS V14.01,2014-01-15 01:25:00,
2014-01-14 20:30:00,40.3,28.3,29.86,SW,234,1.0,2.0,62,0.00,,CLR,0.02,0.00,VWS V14.01,2014-01-15 01:30:00,
2014-01-14 20:35:00,40.1,28.9,29.88,SW,234,0.0,0.0,64,0.00,,CLR,0.02,0.00,VWS V14.01,2014-01-15 01:35:00,
2014-01-14 20:40:00,39.3,28.5,29.88,SW,226,2.0,7.0,65,0.00,,CLR,0.02,0.00,VWS V14.01,2014-01-15 01:40:00,
2014-01-14 20:45:00,38.8,29.2,29.88,West,272,0.0,6.0,68,0.00,,CLR,0.02,0.00,VWS V14.01,2014-01-15 01:45:00,
2014-01-14 20:50:00,38.3,29.0,29.88,WSW,250,0.0,6.0,69,0.00,,CLR,0.02,0.00,VWS V14.01,2014-01-15 01:50:00,
2014-01-14 20:56:00,37.9,29.0,29.88,SSW,200,0.0,2.0,70,0.00,,CLR,0.02,0.00,VWS V14.01,2014-01-15 01:56:00,
2014-01-14 21:01:00,37.6,29.1,29.88,WNW,284,0.0,4.0,71,0.00,,CLR,0.02,0.00,VWS V14.01,2014-01-15 02:01:00,
2014-01-14 21:06:00,37.2,29.0,29.88,WNW,284,0.0,0.0,72,0.00,,CLR,0.02,0.00,VWS V14.01,2014-01-15 02:06:00,
2014-01-14 21:11:00,36.9,28.7,29.88,WNW,284,0.0,0.0,72,0.00,,CLR,0.02,0.00,VWS V14.01,2014-01-15 02:11:00,
2014-01-14 21:16:00,36.3,28.5,29.88,NE,49,0.0,2.0,73,0.00,,CLR,0.02,0.00,VWS V14.01,2014-01-15 02:16:00,
2014-01-14 21:21:00,36.0,28.5,29.88,NE,49,0.0,2.0,74,0.00,,CLR,0.02,0.00,VWS V14.01,2014-01-15 02:21:00,
2014-01-14 21:26:00,35.8,28.7,29.88,NE,48,0.0,0.0,75,0.00,,CLR,0.02,0.00,VWS V14.01,2014-01-15 02:26:00,
2014-01-14 21:31:00,35.3,28.2,29.89,NE,48,0.0,0.0,75,0.00,,CLR,0.02,0.00,VWS V14.01,2014-01-15 02:31:00,
2014-01-14 21:36:00,35.3,28.5,29.89,WSW,246,0.0,0.0,76,0.00,,CLR,0.02,0.00,VWS V14.01,2014-01-15 02:36:00,
2014-01-14 21:41:00,35.0,28.2,29.89,NW,308,0.0,0.0,76,0.00,,CLR,0.02,0.00,VWS V14.01,2014-01-15 02:41:00,
2014-01-14 21:46:00,34.6,27.8,29.90,NW,305,0.0,0.0,76,0.00,,CLR,0.02,0.00,VWS V14.01,2014-01-15 02:46:00,
2014-01-14 21:51:00,34.9,28.8,29.90,WSW,250,0.0,6.0,78,0.00,,CLR,0.02,0.00,VWS V14.01,2014-01-15 02:51:00,
2014-01-14 21:57:00,35.3,29.1,29.90,SSW,206,3.0,7.0,78,0.00,,CLR,0.02,0.00,VWS V14.01,2014-01-15 02:57:00,
2014-01-14 22:02:00,35.8,29.3,29.89,SSW,203,5.0,5.0,77,0.00,,CLR,0.02,0.00,VWS V14.01,2014-01-15 03:02:00,
2014-01-14 22:07:00,35.9,29.4,29.89,SW,233,1.0,7.0,77,0.00,,CLR,0.02,0.00,VWS V14.01,2014-01-15 03:07:00,
2014-01-14 22:12:00,36.0,29.2,29.89,West,271,0.0,0.0,76,0.00,,CLR,0.02,0.00,VWS V14.01,2014-01-15 03:12:00,
2014-01-14 22:17:00,35.9,29.1,29.89,WSW,239,6.0,6.0,76,0.00,,CLR,0.02,0.00,VWS V14.01,2014-01-15 03:17:00,
2014-01-14 22:22:00,35.8,29.0,29.89,South,175,0.0,0.0,76,0.00,,CLR,0.02,0.00,VWS V14.01,2014-01-15 03:22:00,
2014-01-14 22:27:00,35.5,28.7,29.89,SSW,196,0.0,1.0,76,0.00,,CLR,0.02,0.00,VWS V14.01,2014-01-15 03:27:00,
2014-01-14 22:32:00,35.5,29.0,29.89,SW,226,0.0,0.0,77,0.00,,CLR,0.02,0.00,VWS V14.01,2014-01-15 03:32:00,
2014-01-14 22:37:00,35.3,28.8,29.89,West,275,0.0,4.0,77,0.00,,CLR,0.02,0.00,VWS V14.01,2014-01-15 03:37:00,
2014-01-14 22:42:00,35.2,28.7,29.89,West,263,0.0,5.0,77,0.00,,CLR,0.02,0.00,VWS V14.01,2014-01-15 03:42:00,
2014-01-14 22:47:00,35.0,28.5,29.90,West,260,0.0,5.0,77,0.00,,CLR,0.02,0.00,VWS V14.01,2014-01-15 03:47:00,
2014-01-14 22:52:00,34.6,28.1,29.90,WSW,244,1.0,3.0,77,0.00,,CLR,0.02,0.00,VWS V14.01,2014-01-15 03:52:00,
2014-01-14 22:58:00,34.5,28.7,29.90,SW,227,2.0,5.0,79,0.00,,CLR,0.02,0.00,VWS V14.01,2014-01-15 03:58:00,
2014-01-14 22:59:00,30.2,26.2,29.90,SSW,206,0.0,0.0,85,0.00,,CLR,0.02,0.00,VWS V14.01,2014-01-15 03:59:00,
2014-01-14 23:00:00,30.2,26.2,29.90,SSW,206,0.0,0.0,85,0.00,,CLR,0.00,0.00,VWS V14.01,2014-01-15 04:00:00,
2014-01-14 23:01:00,30.2,26.2,29.90,SSW,206,0.0,0.0,85,0.00,,CLR,0.00,0.00,VWS V14.01,2014-01-15 04:01:00,
2014-01-14 23:02:00,30.2,26.2,29.90,SSW,206,0.0,0.0,85,0.00,,CLR,0.00,0.00,VWS V14.01,2014-01-15 04:02:00,
2014-01-14 23:03:00,34.5,28.7,29.90,SW,219,0.0,4.0,79,0.00,,CLR,0.02,0.00,VWS V14.01,2014-01-15 04:03:00,
2014-01-14 23:04:00,30.2,26.2,29.90,SSW,206,0.0,0.0,85,0.00,,CLR,0.00,0.00,VWS V14.01,2014-01-15 04:04:00,
2014-01-14 23:05:00,30.0,26.3,29.90,SSW,206,0.0,0.0,86,0.00,,CLR,0.00,0.00,VWS V14.01,2014-01-15 04:05:00,
2014-01-14 23:06:00,30.0,26.3,29.90,SSW,206,0.0,0.0,86,0.00,,CLR,0.00,0.00,VWS V14.01,2014-01-15 04:06:00,
2014-01-14 23:07:00,30.0,26.3,29.90,SSW,206,0.0,0.0,86,0.00,,CLR,0.00,0.00,VWS V14.01,2014-01-15 04:07:00,
2014-01-14 23:08:00,34.2,28.1,29.90,WSW,237,4.0,4.0,78,0.00,,CLR,0.02,0.00,VWS V14.01,2014-01-15 04:08:00,
2014-01-14 23:09:00,29.9,26.2,29.90,SSW,206,0.0,0.0,86,0.00,,CLR,0.00,0.00,VWS V14.01,2014-01-15 04:09:00,
2014-01-14 23:10:00,29.9,26.2,29.90,SSW,206,0.0,0.0,86,0.00,,CLR,0.00,0.00,VWS V14.01,2014-01-15 04:10:00,
2014-01-14 23:11:00,29.9,26.2,29.90,SSW,206,0.0,0.0,86,0.00,,CLR,0.00,0.00,VWS V14.01,2014-01-15 04:11:00,
2014-01-14 23:12:00,29.9,26.2,29.90,SSW,206,0.0,0.0,86,0.00,,CLR,0.00,0.00,VWS V14.01,2014-01-15 04:12:00,
2014-01-14 23:13:00,33.9,28.1,29.90,WSW,240,0.0,2.0,79,0.00,,CLR,0.02,0.00,VWS V14.01,2014-01-15 04:13:00,
2014-01-14 23:14:00,29.7,26.0,29.89,SSW,206,0.0,0.0,86,0.00,,CLR,0.00,0.00,VWS V14.01,2014-01-15 04:14:00,
2014-01-14 23:15:00,29.7,26.0,29.89,SSW,206,0.0,0.0,86,0.00,,CLR,0.00,0.00,VWS V14.01,2014-01-15 04:15:00,
2014-01-14 23:16:00,29.6,25.9,29.89,SSW,206,0.0,0.0,86,0.00,,CLR,0.00,0.00,VWS V14.01,2014-01-15 04:16:00,
2014-01-14 23:17:00,29.6,25.9,29.89,SSW,206,0.0,0.0,86,0.00,,CLR,0.00,0.00,VWS V14.01,2014-01-15 04:17:00,
2014-01-14 23:18:00,33.6,28.1,29.90,SSW,205,0.0,3.0,80,0.00,,CLR,0.02,0.00,VWS V14.01,2014-01-15 04:18:00,
2014-01-14 23:19:00,29.6,25.9,29.89,SSW,206,0.0,0.0,86,0.00,,CLR,0.00,0.00,VWS V14.01,2014-01-15 04:19:00,
2014-01-14 23:20:00,29.4,25.7,29.89,SSW,206,0.0,0.0,86,0.00,,CLR,0.00,0.00,VWS V14.01,2014-01-15 04:20:00,
2014-01-14 23:21:00,29.4,25.7,29.89,SSW,206,0.0,0.0,86,0.00,,CLR,0.00,0.00,VWS V14.01,2014-01-15 04:21:00,
2014-01-14 23:22:00,29.4,25.7,29.89,SSW,206,0.0,0.0,86,0.00,,CLR,0.00,0.00,VWS V14.01,2014-01-15 04:22:00,
2014-01-14 23:23:00,33.1,27.6,29.90,SSW,213,0.0,0.0,80,0.00,,CLR,0.02,0.00,VWS V14.01,2014-01-15 04:23:00,
2014-01-14 23:24:00,29.4,26.0,29.89,SSW,206,0.0,0.0,87,0.00,,CLR,0.00,0.00,VWS V14.01,2014-01-15 04:24:00,
2014-01-14 23:25:00,29.4,26.0,29.89,SSW,206,0.0,0.0,87,0.00,,CLR,0.00,0.00,VWS V14.01,2014-01-15 04:25:00,
2014-01-14 23:26:00,29.3,25.9,29.89,SSW,206,0.0,0.0,87,0.00,,CLR,0.00,0.00,VWS V14.01,2014-01-15 04:26:00,
2014-01-14 23:27:00,29.3,25.9,29.89,SSW,206,0.0,0.0,87,0.00,,CLR,0.00,0.00,VWS V14.01,2014-01-15 04:27:00,
2014-01-14 23:28:00,32.7,27.5,29.90,SSW,213,0.0,0.0,81,0.00,,CLR,0.02,0.00,VWS V14.01,2014-01-15 04:28:00,
2014-01-14 23:29:00,29.3,25.9,29.89,SSW,206,0.0,0.0,87,0.00,,CLR,0.00,0.00,VWS V14.01,2014-01-15 04:29:00,
2014-01-14 23:30:00,29.3,25.9,29.89,SSW,206,0.0,0.0,87,0.00,,CLR,0.00,0.00,VWS V14.01,2014-01-15 04:30:00,
2014-01-14 23:31:00,29.3,25.9,29.89,SSW,206,0.0,0.0,87,0.00,,CLR,0.00,0.00,VWS V14.01,2014-01-15 04:31:00,
2014-01-14 23:32:00,29.3,25.9,29.89,SSW,206,0.0,0.0,87,0.00,,CLR,0.00,0.00,VWS V14.01,2014-01-15 04:32:00,
2014-01-14 23:33:00,32.1,27.2,29.90,SSW,206,0.0,0.0,82,0.00,,CLR,0.02,0.00,VWS V14.01,2014-01-15 04:33:00,
2014-01-14 23:35:00,29.1,25.7,29.89,SSW,206,0.0,0.0,87,0.00,,CLR,0.00,0.00,VWS V14.01,2014-01-15 04:35:00,
2014-01-14 23:36:00,29.1,25.7,29.89,SSW,206,0.0,0.0,87,0.00,,CLR,0.00,0.00,VWS V14.01,2014-01-15 04:36:00,
2014-01-14 23:37:00,29.1,25.7,29.89,SSW,206,0.0,0.0,87,0.00,,CLR,0.00,0.00,VWS V14.01,2014-01-15 04:37:00,
2014-01-14 23:38:00,31.7,26.8,29.90,SSW,206,0.0,0.0,82,0.00,,CLR,0.02,0.00,VWS V14.01,2014-01-15 04:38:00,
2014-01-14 23:39:00,29.0,25.9,29.89,SSW,206,0.0,0.0,88,0.00,,CLR,0.00,0.00,VWS V14.01,2014-01-15 04:39:00,
2014-01-14 23:40:00,29.0,25.9,29.89,SSW,206,0.0,0.0,88,0.00,,CLR,0.00,0.00,VWS V14.01,2014-01-15 04:40:00,
2014-01-14 23:41:00,29.0,25.9,29.89,WNW,296,0.0,2.0,88,0.00,,CLR,0.00,0.00,VWS V14.01,2014-01-15 04:41:00,
2014-01-14 23:42:00,29.0,25.9,29.89,WNW,296,0.0,2.0,88,0.00,,CLR,0.00,0.00,VWS V14.01,2014-01-15 04:42:00,
2014-01-14 23:43:00,31.4,26.8,29.90,SSW,206,0.0,0.0,83,0.00,,CLR,0.02,0.00,VWS V14.01,2014-01-15 04:43:00,
2014-01-14 23:48:00,30.8,26.5,29.90,SSW,206,0.0,0.0,84,0.00,,CLR,0.02,0.00,VWS V14.01,2014-01-15 04:48:00,
2014-01-14 23:53:00,30.5,26.2,29.90,SSW,206,0.0,0.0,84,0.00,,CLR,0.02,0.00,VWS V14.01,2014-01-15 04:53:00,
2014-01-14 23:59:00,30.3,26.3,29.90,SSW,206,0.0,0.0,85,0.00,,CLR,0.02,0.00,VWS V14.01,2014-01-15 04:59:00,